Location: Cieszkowy
(50.3290°N, 20.5336°E)
Time: 23:49:02
(UTC+00:00)

Cosmos 1437 Rocket - Pass Details

Date: 15 June 2024
Orbit: 477 x 530 km, 81.2° (Epoch: 18 July)

Event Time Altitude Azimuth Distance (km) Brightness Sun altitude
Exits shadow 00:16:15 - 150° (SSE) 1,857 5.2 -13.2°
Reaches altitude 10° 00:16:34 10° 148° (SSE) 1,747 5.0 -13.2°
Maximum altitude 00:19:44 25° 92° (E) 1,070 4.5 -13.0°
Drops below altitude 10° 00:22:52 10° 36° (NE) 1,732 6.8 -12.8°
Sets 00:25:14 0° 23° (NNE) 2,612 8.4 -12.6°
